Home > Weather > Perm > Past weeks

Flag for Russia Past Weather in Perm, Russia — Yesterday and Last 2 Weeks

Now
66 °F

Partly sunny.


Feels Like: 66 °F
Forecast: 51 / 66 °F
Wind: 10 mph from Northwest

Location: Perm'/Bolshoe Savino

Current Time: Aug 27, 2016 at 3:09:23 PM

Latest Report: Aug 27, 2016 at 2:30 PM


Visibility: N/A

Pressure: 29.89 "Hg

Humidity: 46%

Dew Point: 45 °F

Location of PermLocation

Past Weather in Perm — Graph

°F

Perm Temperature Yesterday

Maximum temperature yesterday: 68 °F (at 11:00 AM)
Minimum temperature yesterday: 54 °F (at 10:30 PM)
Average temperature yesterday: 64 °F

High & Low Weather Summary for the Past Weeks

 TemperatureHumidityPressure
High93 °F (Aug 15, 1:00 PM)100% (Aug 13, 2:00 AM)30.39 "Hg (Aug 13, 2:00 AM)
Low52 °F (Aug 27, 4:30 AM)15% (Aug 25, 2:30 PM)29.86 "Hg (Aug 25, 11:00 PM)
Average73 °F61%30.14 "Hg
* Reported Aug 12 2:00 PM — Aug 27 2:00 PM, Perm, Weather by CustomWeather, © 2016

Note: Actual official high and low records may vary slightly from our data, if they occured in-between our weather recording intervals... More about our weather records

Advertising

Perm Weather History for the Previous 24 Hours

Scroll right to see more
 ConditionsComfort  
Time TempWeatherWind HumidityBarometerVisibility
2:00 PM
Sat, Aug 27
68 °FPartly sunny.13 mph49%29.89 "HgN/A
1:30 PM66 °FScattered clouds.13 mph49%29.89 "HgN/A
1:00 PM66 °FScattered clouds.10 mph56%29.89 "HgN/A
12:30 PM59 °FPartly sunny.13 mph72%29.89 "HgN/A
12:00 PM64 °FPartly sunny.10 mph56%29.89 "HgN/A
11:30 AM63 °FPartly sunny.13 mph68%29.89 "HgN/A
11:00 AM64 °FPartly sunny.10 mph64%29.89 "HgN/A
10:30 AM61 °FScattered clouds.8 mph72%29.89 "HgN/A
10:00 AM61 °FScattered clouds.6 mph77%29.89 "HgN/A
9:30 AM59 °FSunny.8 mph77%29.89 "Hg10 mi
9:00 AM59 °FSunny.8 mph82%29.89 "Hg10 mi
8:30 AM59 °FSunny.8 mph82%29.89 "Hg10 mi
8:00 AM57 °FSunny.6 mph88%29.89 "Hg10 mi
7:30 AM55 °FSunny.6 mph94%29.89 "Hg10 mi
7:00 AM55 °FClear.6 mph94%29.89 "Hg10 mi
6:30 AM55 °FClear.6 mph94%29.89 "Hg10 mi
6:00 AM55 °FClear.3 mph94%29.89 "Hg10 mi
5:30 AM54 °FClear.8 mph100%29.89 "Hg10 mi
5:00 AM54 °FClear.6 mph94%29.89 "Hg10 mi
4:30 AM52 °FClear.8 mph100%29.89 "Hg10 mi
4:00 AM54 °FClear.8 mph94%29.89 "Hg10 mi
3:30 AM54 °FClear.8 mph94%29.89 "Hg10 mi
3:00 AM54 °FClear.8 mph94%29.86 "Hg10 mi
2:30 AM54 °FClear.8 mph94%29.86 "Hg10 mi
2:00 AM54 °FClear.8 mph94%29.89 "Hg10 mi
1:30 AM54 °FClear.6 mph94%29.89 "Hg10 mi
1:00 AM54 °FClear.6 mph94%29.89 "Hg10 mi
12:30 AM54 °FClear.6 mph94%29.89 "Hg10 mi
12:00 AM54 °FClear.6 mph94%29.89 "Hg10 mi
11:30 PM
Fri, Aug 26
54 °FClear.6 mph94%29.89 "Hg10 mi
11:00 PM54 °FPassing clouds.8 mph94%29.89 "HgN/A
10:30 PM54 °FPassing clouds.8 mph94%29.89 "HgN/A
10:00 PM55 °FClear.6 mph94%29.89 "Hg10 mi
9:30 PM55 °FClear.6 mph94%29.89 "Hg10 mi
9:00 PM59 °FSunny.8 mph82%29.89 "Hg10 mi
8:30 PM61 °FPassing clouds.10 mph77%29.92 "HgN/A
8:00 PM63 °FScattered clouds.10 mph73%29.92 "HgN/A
7:30 PM64 °FScattered clouds.13 mph64%29.92 "HgN/A
7:00 PM64 °FScattered clouds.10 mph64%29.92 "HgN/A
6:30 PM66 °FScattered clouds.10 mph60%29.92 "HgN/A
6:00 PM66 °FScattered clouds.13 mph60%29.92 "HgN/A
5:30 PM66 °FScattered clouds.13 mph56%29.92 "HgN/A
5:00 PM68 °FScattered clouds.13 mph56%29.95 "HgN/A
4:30 PM68 °FScattered clouds.13 mph53%29.95 "HgN/A
4:00 PM68 °FScattered clouds.10 mph53%29.95 "HgN/A
3:30 PM68 °FScattered clouds.6 mph53%29.95 "HgN/A
3:00 PM68 °FScattered clouds.6 mph53%29.95 "HgN/A
Weather by CustomWeather, © 2016

See weather overviewHow to use our weather pages